YAMAL 300K

Last updated on Thu Oct 30 2025 00:02:49 GMT+0000 (Coordinated Universal Time)

1 38978U 12061B 25302.54211330 .00000081 00000+0 00000+0 0 9993 2 38978 0.0108 233.5839 0000063 252.4682 290.1964 1.00269926 47318
UTC large
Height (km)
Speed (km/s)
/
Latitude / Longitude
Inclination (degrees)
Orbital Period (minutes)
Azimuth
Elevation
Range (km)
Doppler Factor

Next 0 passes for location: London (51.5072 / 0.1276)

Sorry there are no passes over London.